User: anonymous   Login
Location: Tauranga
(37.6860°S, 176.1670°E)
Time: 05:46:59
(UTC+13:00)
Language:

Mayak - Orbit

View from above orbital plane
View from above orbital plane
View from above satellite
View from above satellite

Ground track
Ground track

The orbit data is extracted from the following two-line orbital elements,

1 42830U 17042F   19316.48000913  .00000545  00000-0  59066-4 0  9990
2 42830  97.5497 204.0205 0012913 289.9540  70.0288 14.91958432126859
Epoch (UTC): 12 November 2019 11:31:12
Eccentricity: 0.0012913
inclination: 97.5497°
perigee height: 583 km
apogee height: 601 km
right ascension of ascending node: 204.0205°
argument of perigee: 289.9540°
revolutions per day: 14.91958432
mean anomaly at epoch: 70.0288°
orbit number at epoch: 12685

The dashed part of the orbit path shows where the satellite is in the earth's shadow,  

DLR